AEE680 LGAV-LIRN

Flight info

Callsign AEE680
Flight time 1h 26m
Altitude 36000
Route KOR UL53 IXONI DCT TIGRA DCT MOKTO DCT DOGUS DCT EKTOL
Aircraft A320/M-SDE3FGHIRWY/LB1

Departure

Time 2026-05-05 14:34
Airport Athens Eleftherios Venizelos International Airport (LGAV)

Arrival

Time 2026-05-05 16:00
Airport Naples International Airport (LIRN)
Time Latitude Longitude Altitude Speed Heading
2026-05-05 14:07 37.94051 23.95256 280 ft 0 kts 37°
2026-05-05 14:16 37.94049 23.95255 277 ft 0 kts 37°
2026-05-05 14:24 37.94045 23.95250 283 ft 2 kts 38°
2026-05-05 14:24 37.94030 23.95234 283 ft 3 kts 45°
2026-05-05 14:24 37.94016 23.95215 280 ft 3 kts 55°
2026-05-05 14:24 37.94006 23.95194 286 ft 3 kts 71°
2026-05-05 14:25 37.94002 23.95170 288 ft 3 kts 101°
2026-05-05 14:25 37.94006 23.95156 284 ft 1 kts 127°
2026-05-05 14:25 37.94006 23.95155 284 ft 0 kts 127°
2026-05-05 14:27 37.94006 23.95156 285 ft 1 kts 127°
2026-05-05 14:28 37.93995 23.95173 286 ft 4 kts 127°
2026-05-05 14:28 37.93973 23.95211 280 ft 7 kts 127°
2026-05-05 14:28 37.93939 23.95270 284 ft 10 kts 127°
2026-05-05 14:28 37.93893 23.95348 282 ft 12 kts 127°
2026-05-05 14:29 37.93854 23.95452 279 ft 15 kts 80°
2026-05-05 14:29 37.93931 23.95546 282 ft 17 kts 37°
2026-05-05 14:29 37.94033 23.95644 277 ft 20 kts 37°
2026-05-05 14:29 37.94151 23.95757 276 ft 23 kts 37°
2026-05-05 14:30 37.94285 23.95882 277 ft 25 kts 36°
2026-05-05 14:30 37.94433 23.96020 273 ft 28 kts 36°
2026-05-05 14:30 37.94595 23.96172 271 ft 30 kts 38°
2026-05-05 14:30 37.94766 23.96341 269 ft 32 kts 37°
2026-05-05 14:31 37.94951 23.96514 267 ft 34 kts 36°
2026-05-05 14:31 37.95144 23.96699 265 ft 36 kts 37°
2026-05-05 14:31 37.95292 23.96867 264 ft 17 kts 77°
2026-05-05 14:31 37.95271 23.96946 263 ft 0 kts 126°
2026-05-05 14:32 37.95265 23.96957 263 ft 2 kts 126°
2026-05-05 14:32 37.95252 23.96980 263 ft 4 kts 127°
2026-05-05 14:32 37.95229 23.97011 264 ft 5 kts 143°
2026-05-05 14:32 37.95194 23.97014 265 ft 5 kts 195°
2026-05-05 14:33 37.95161 23.96990 265 ft 6 kts 216°
2026-05-05 14:33 37.94976 23.96816 268 ft 67 kts 217°
2026-05-05 14:33 37.94444 23.96308 271 ft 124 kts 217°
2026-05-05 14:33 37.93631 23.95536 283 ft 167 kts 217°
2026-05-05 14:34 37.92656 23.94696 807 ft 167 kts 211°
2026-05-05 14:34 37.91636 23.93983 1402 ft 170 kts 210°
2026-05-05 14:34 37.90587 23.93303 1968 ft 173 kts 210°
2026-05-05 14:34 37.89477 23.92586 2424 ft 185 kts 210°
2026-05-05 14:35 37.88288 23.91792 2697 ft 205 kts 211°
2026-05-05 14:35 37.86953 23.90879 2890 ft 233 kts 210°
2026-05-05 14:35 37.85443 23.89857 3260 ft 257 kts 209°
2026-05-05 14:35 37.83828 23.88775 3964 ft 264 kts 209°
2026-05-05 14:36 37.82202 23.87673 4870 ft 267 kts 209°
2026-05-05 14:36 37.80558 23.86543 5696 ft 271 kts 209°
2026-05-05 14:36 37.78894 23.85394 6542 ft 275 kts 209°
2026-05-05 14:36 37.77201 23.84229 7352 ft 278 kts 209°
2026-05-05 14:37 37.75490 23.83056 8163 ft 281 kts 210°
2026-05-05 14:37 37.73759 23.81879 8980 ft 284 kts 209°
2026-05-05 14:37 37.72002 23.80704 9785 ft 287 kts 209°
2026-05-05 14:37 37.70222 23.79522 10513 ft 291 kts 209°
2026-05-05 14:38 37.68418 23.78327 11229 ft 294 kts 210°
2026-05-05 14:38 37.66602 23.77122 11942 ft 297 kts 211°
2026-05-05 14:38 37.64766 23.75899 12655 ft 300 kts 211°
2026-05-05 14:38 37.62910 23.74664 13361 ft 302 kts 211°
2026-05-05 14:39 37.61044 23.73424 14062 ft 305 kts 211°
2026-05-05 14:39 37.59159 23.72176 14687 ft 307 kts 211°
2026-05-05 14:39 37.57300 23.70901 15273 ft 310 kts 217°
2026-05-05 14:39 37.55740 23.68983 15430 ft 322 kts 242°
2026-05-05 14:40 37.54923 23.66324 15564 ft 334 kts 262°
2026-05-05 14:40 37.54482 23.63368 15686 ft 352 kts 262°
2026-05-05 14:40 37.54011 23.60263 15915 ft 367 kts 262°
2026-05-05 14:40 37.53510 23.57082 16384 ft 373 kts 261°
2026-05-05 14:41 37.52993 23.53864 16937 ft 377 kts 261°
2026-05-05 14:41 37.52464 23.50613 17504 ft 381 kts 261°
2026-05-05 14:41 37.51928 23.47326 18097 ft 384 kts 261°
2026-05-05 14:41 37.51391 23.44015 18641 ft 388 kts 261°
2026-05-05 14:42 37.50875 23.40673 19165 ft 390 kts 264°
2026-05-05 14:42 37.50896 23.37279 19701 ft 388 kts 282°
2026-05-05 14:42 37.51720 23.34057 20257 ft 387 kts 299°
2026-05-05 14:42 37.53285 23.31313 20807 ft 387 kts 316°
2026-05-05 14:43 37.55384 23.29168 21342 ft 389 kts 324°
2026-05-05 14:43 37.57564 23.27128 21850 ft 392 kts 324°
2026-05-05 14:43 37.59761 23.25078 22343 ft 394 kts 324°
2026-05-05 14:43 37.61971 23.23016 22829 ft 397 kts 324°
2026-05-05 14:44 37.64194 23.20933 23305 ft 399 kts 324°
2026-05-05 14:44 37.66426 23.18831 23761 ft 402 kts 323°
2026-05-05 14:44 37.68670 23.16712 24150 ft 404 kts 323°
2026-05-05 14:44 37.70923 23.14579 24526 ft 406 kts 323°
2026-05-05 14:45 37.73185 23.12434 24950 ft 406 kts 323°
2026-05-05 14:45 37.75446 23.10292 25378 ft 406 kts 323°
2026-05-05 14:45 37.77699 23.08160 25909 ft 403 kts 324°
2026-05-05 14:45 37.79910 23.06070 26369 ft 402 kts 324°
2026-05-05 14:46 37.82147 23.03950 26798 ft 402 kts 323°
2026-05-05 14:46 37.84388 23.01823 27214 ft 403 kts 323°
2026-05-05 14:46 37.86630 22.99692 27610 ft 404 kts 323°
2026-05-05 14:46 37.88873 22.97555 28005 ft 404 kts 323°
2026-05-05 14:47 37.91125 22.95407 28379 ft 405 kts 322°
2026-05-05 14:47 37.93205 22.92993 28749 ft 408 kts 314°
2026-05-05 14:47 37.94953 22.90152 29113 ft 410 kts 307°
2026-05-05 14:47 37.96587 22.87182 29475 ft 411 kts 307°
2026-05-05 14:48 37.98221 22.84213 29964 ft 409 kts 307°
2026-05-05 14:48 37.99845 22.81258 30446 ft 407 kts 307°
2026-05-05 14:48 38.01455 22.78325 30872 ft 405 kts 307°
2026-05-05 14:48 38.03058 22.75402 31287 ft 402 kts 307°
2026-05-05 14:49 38.04653 22.72490 31709 ft 401 kts 307°
2026-05-05 14:49 38.06240 22.69590 32120 ft 400 kts 307°
2026-05-05 14:49 38.07827 22.66703 32518 ft 399 kts 307°
2026-05-05 14:49 38.09414 22.63822 32921 ft 398 kts 307°
2026-05-05 14:50 38.10995 22.60943 33319 ft 397 kts 307°
2026-05-05 14:50 38.12565 22.58069 33722 ft 396 kts 307°
2026-05-05 14:50 38.14130 22.55194 34123 ft 395 kts 307°
2026-05-05 14:50 38.15691 22.52325 34467 ft 394 kts 307°
2026-05-05 14:51 38.17251 22.49460 34787 ft 394 kts 307°
2026-05-05 14:51 38.18811 22.46599 35105 ft 393 kts 307°
2026-05-05 14:51 38.20364 22.43751 35418 ft 391 kts 307°
2026-05-05 14:51 38.21914 22.40909 35754 ft 390 kts 307°
2026-05-05 14:52 38.23457 22.38075 36051 ft 390 kts 307°
2026-05-05 14:52 38.25000 22.35237 36134 ft 392 kts 307°
2026-05-05 14:52 38.28123 22.29483 36157 ft 403 kts 307°
2026-05-05 14:53 38.31341 22.23532 36152 ft 412 kts 307°
2026-05-05 14:53 38.34660 22.17545 36160 ft 415 kts 308°
2026-05-05 14:54 38.38056 22.11596 36143 ft 414 kts 308°
2026-05-05 14:54 38.41423 22.05673 36166 ft 412 kts 308°
2026-05-05 14:55 38.44765 21.99739 36166 ft 412 kts 308°
2026-05-05 14:55 38.47534 21.94789 36179 ft 412 kts 308°
2026-05-05 14:56 38.50873 21.88832 36174 ft 413 kts 308°
2026-05-05 14:56 38.54219 21.82861 36180 ft 413 kts 308°
2026-05-05 14:57 38.57557 21.76889 36129 ft 413 kts 307°
2026-05-05 14:57 38.60894 21.70915 36200 ft 412 kts 307°
2026-05-05 14:58 38.64223 21.64938 36206 ft 412 kts 307°
2026-05-05 14:58 38.67540 21.58960 36203 ft 412 kts 307°
2026-05-05 14:59 38.70855 21.52975 36205 ft 412 kts 307°
2026-05-05 14:59 38.74172 21.46990 36206 ft 412 kts 307°
2026-05-05 15:00 38.76925 21.42007 36204 ft 412 kts 307°
2026-05-05 15:00 38.80794 21.35006 36200 ft 412 kts 307°
2026-05-05 15:01 38.84096 21.29011 36198 ft 412 kts 307°
2026-05-05 15:01 38.87397 21.23005 36197 ft 412 kts 307°
2026-05-05 15:02 38.90671 21.17040 36196 ft 411 kts 307°
2026-05-05 15:02 38.93962 21.11025 36179 ft 411 kts 307°
2026-05-05 15:03 38.97244 21.05021 36199 ft 411 kts 307°
2026-05-05 15:03 39.00521 20.99010 36193 ft 410 kts 307°
2026-05-05 15:04 39.03794 20.92993 36192 ft 410 kts 307°
2026-05-05 15:04 39.07065 20.86979 36188 ft 410 kts 307°
2026-05-05 15:05 39.11965 20.77949 36171 ft 410 kts 306°
2026-05-05 15:06 39.15230 20.71918 36175 ft 410 kts 306°
2026-05-05 15:06 39.18486 20.65879 36181 ft 410 kts 306°
2026-05-05 15:07 39.21721 20.59873 36180 ft 410 kts 306°
2026-05-05 15:07 39.24978 20.53822 36183 ft 410 kts 306°
2026-05-05 15:08 39.28222 20.47768 36183 ft 410 kts 306°
2026-05-05 15:08 39.31474 20.41700 36175 ft 411 kts 306°
2026-05-05 15:09 39.34725 20.35635 36174 ft 411 kts 306°
2026-05-05 15:09 39.37972 20.29554 36173 ft 411 kts 306°
2026-05-05 15:10 39.41212 20.23465 36170 ft 411 kts 306°
2026-05-05 15:10 39.44450 20.17372 36161 ft 411 kts 306°
2026-05-05 15:11 39.47687 20.11273 36138 ft 411 kts 306°
2026-05-05 15:11 39.50927 20.05164 36137 ft 411 kts 306°
2026-05-05 15:12 39.54166 19.99036 36143 ft 412 kts 305°
2026-05-05 15:12 39.57398 19.92913 36150 ft 412 kts 305°
2026-05-05 15:13 39.60628 19.86780 36152 ft 412 kts 305°
2026-05-05 15:13 39.63856 19.80637 36161 ft 412 kts 305°
2026-05-05 15:14 39.67060 19.74527 36141 ft 413 kts 305°
2026-05-05 15:14 39.70290 19.68358 36142 ft 413 kts 305°
2026-05-05 15:15 39.73519 19.62182 36146 ft 413 kts 305°
2026-05-05 15:15 39.76747 19.56001 36144 ft 413 kts 305°
2026-05-05 15:16 39.79968 19.49812 36147 ft 413 kts 305°
2026-05-05 15:16 39.83185 19.43615 36132 ft 414 kts 305°
2026-05-05 15:17 39.86404 19.37399 36132 ft 414 kts 305°
2026-05-05 15:17 39.89631 19.31173 36136 ft 415 kts 305°
2026-05-05 15:18 39.92853 19.24934 36138 ft 415 kts 304°
2026-05-05 15:18 39.96075 19.18690 36148 ft 415 kts 304°
2026-05-05 15:19 39.99297 19.12440 36147 ft 415 kts 304°
2026-05-05 15:19 40.02495 19.06215 36127 ft 416 kts 304°
2026-05-05 15:20 40.05639 18.99870 36132 ft 417 kts 298°
2026-05-05 15:20 40.07916 18.92884 36129 ft 419 kts 294°
2026-05-05 15:21 40.10124 18.85845 36132 ft 419 kts 294°
2026-05-05 15:21 40.12332 18.78802 36134 ft 419 kts 294°
2026-05-05 15:22 40.14546 18.71754 36117 ft 420 kts 294°
2026-05-05 15:22 40.16756 18.64678 36115 ft 420 kts 294°
2026-05-05 15:23 40.18959 18.57598 36119 ft 421 kts 294°
2026-05-05 15:23 40.21163 18.50508 36118 ft 421 kts 294°
2026-05-05 15:24 40.23359 18.43409 36122 ft 421 kts 293°
2026-05-05 15:24 40.25553 18.36293 36111 ft 421 kts 293°
2026-05-05 15:25 40.27752 18.29177 36112 ft 422 kts 293°
2026-05-05 15:25 40.29945 18.22046 36114 ft 422 kts 293°
2026-05-05 15:26 40.32131 18.14909 36116 ft 422 kts 293°
2026-05-05 15:26 40.34311 18.07773 36124 ft 422 kts 293°
2026-05-05 15:27 40.36493 18.00622 36123 ft 422 kts 293°
2026-05-05 15:27 40.38671 17.93479 36124 ft 422 kts 293°
2026-05-05 15:28 40.40831 17.86374 36124 ft 422 kts 293°
2026-05-05 15:28 40.42993 17.79219 36126 ft 422 kts 293°
2026-05-05 15:29 40.45153 17.72047 36124 ft 422 kts 292°
2026-05-05 15:29 40.47307 17.64879 36121 ft 422 kts 292°
2026-05-05 15:30 40.49458 17.57709 36123 ft 422 kts 292°
2026-05-05 15:30 40.51614 17.50537 36121 ft 422 kts 292°
2026-05-05 15:31 40.53763 17.43361 36127 ft 422 kts 292°
2026-05-05 15:31 40.55900 17.36172 36118 ft 422 kts 292°
2026-05-05 15:32 40.58014 17.29030 36122 ft 422 kts 292°
2026-05-05 15:32 40.60146 17.21833 36128 ft 422 kts 292°
2026-05-05 15:33 40.62270 17.14636 36126 ft 422 kts 291°
2026-05-05 15:33 40.64324 17.07390 36122 ft 422 kts 291°
2026-05-05 15:34 40.66351 17.00137 36117 ft 422 kts 291°
2026-05-05 15:34 40.68388 16.92879 36119 ft 422 kts 291°
2026-05-05 15:35 40.70428 16.85618 36122 ft 422 kts 291°
2026-05-05 15:35 40.72455 16.78359 36132 ft 422 kts 291°
2026-05-05 15:36 40.74485 16.71084 36132 ft 422 kts 291°
2026-05-05 15:36 40.76503 16.63810 36114 ft 423 kts 290°
2026-05-05 15:37 40.78505 16.56563 36128 ft 423 kts 290°
2026-05-05 15:37 40.80521 16.49277 36126 ft 423 kts 290°
2026-05-05 15:37 40.81531 16.45632 35892 ft 419 kts 290°
2026-05-05 15:38 40.82518 16.42062 35116 ft 409 kts 290°
2026-05-05 15:38 40.83487 16.38554 34400 ft 407 kts 290°
2026-05-05 15:38 40.84455 16.35032 33547 ft 409 kts 290°
2026-05-05 15:38 40.85425 16.31497 32748 ft 409 kts 290°
2026-05-05 15:39 40.86393 16.27958 31889 ft 411 kts 290°
2026-05-05 15:39 40.87365 16.24409 31069 ft 411 kts 290°
2026-05-05 15:39 40.88339 16.20853 30387 ft 409 kts 290°
2026-05-05 15:39 40.89300 16.17342 29844 ft 403 kts 290°
2026-05-05 15:40 40.90242 16.13885 29301 ft 397 kts 290°
2026-05-05 15:40 40.91171 16.10475 28759 ft 391 kts 290°
2026-05-05 15:40 40.92084 16.07114 28239 ft 386 kts 290°
2026-05-05 15:40 40.92987 16.03791 27715 ft 381 kts 290°
2026-05-05 15:41 40.93876 16.00505 27197 ft 378 kts 290°
2026-05-05 15:41 40.94757 15.97249 26685 ft 374 kts 289°
2026-05-05 15:41 40.95629 15.94018 26178 ft 372 kts 289°
2026-05-05 15:41 40.96495 15.90805 25682 ft 370 kts 289°
2026-05-05 15:42 40.97358 15.87607 25174 ft 368 kts 289°
2026-05-05 15:42 40.98218 15.84420 24673 ft 368 kts 290°
2026-05-05 15:42 40.99075 15.81237 24190 ft 367 kts 289°
2026-05-05 15:42 40.99916 15.78097 23712 ft 367 kts 289°
2026-05-05 15:43 41.00767 15.74917 23186 ft 366 kts 289°
2026-05-05 15:43 41.01616 15.71752 22719 ft 363 kts 289°
2026-05-05 15:43 41.02304 15.68544 22244 ft 361 kts 283°
2026-05-05 15:43 41.02843 15.65307 21775 ft 359 kts 283°
2026-05-05 15:44 41.03377 15.62092 21312 ft 356 kts 282°
2026-05-05 15:44 41.03728 15.59972 21012 ft 355 kts 282°
2026-05-05 15:44 41.04255 15.56795 20568 ft 352 kts 282°
2026-05-05 15:44 41.04778 15.53642 20095 ft 350 kts 282°
2026-05-05 15:45 41.05301 15.50499 19629 ft 347 kts 282°
2026-05-05 15:45 41.05818 15.47391 19150 ft 345 kts 282°
2026-05-05 15:45 41.06331 15.44288 18667 ft 344 kts 282°
2026-05-05 15:45 41.06841 15.41201 18141 ft 343 kts 282°
2026-05-05 15:46 41.07347 15.38118 17621 ft 341 kts 281°
2026-05-05 15:46 41.07851 15.35051 17122 ft 339 kts 281°
2026-05-05 15:46 41.08350 15.32005 16618 ft 337 kts 281°
2026-05-05 15:46 41.08847 15.28972 16105 ft 336 kts 281°
2026-05-05 15:47 41.09341 15.25943 15595 ft 336 kts 281°
2026-05-05 15:47 41.09832 15.22924 15094 ft 335 kts 281°
2026-05-05 15:47 41.10323 15.19896 14587 ft 336 kts 281°
2026-05-05 15:47 41.10779 15.16859 14068 ft 336 kts 276°
2026-05-05 15:48 41.10993 15.13777 13520 ft 336 kts 273°
2026-05-05 15:48 41.11192 15.10703 12994 ft 332 kts 274°
2026-05-05 15:48 41.11390 15.07710 12504 ft 322 kts 274°
2026-05-05 15:48 41.11585 15.04755 12000 ft 322 kts 274°
2026-05-05 15:49 41.11776 15.01845 11517 ft 321 kts 274°
2026-05-05 15:49 41.11970 14.98891 11020 ft 321 kts 274°
2026-05-05 15:49 41.12163 14.95942 10621 ft 318 kts 274°
2026-05-05 15:49 41.12350 14.93078 10500 ft 305 kts 273°
2026-05-05 15:50 41.12526 14.90367 10295 ft 287 kts 273°
2026-05-05 15:50 41.12693 14.87774 9896 ft 277 kts 273°
2026-05-05 15:50 41.12851 14.85276 9768 ft 267 kts 272°
2026-05-05 15:50 41.12897 14.82858 9634 ft 257 kts 263°
2026-05-05 15:51 41.12530 14.80591 9503 ft 248 kts 249°
2026-05-05 15:51 41.11798 14.78565 9299 ft 243 kts 238°
2026-05-05 15:51 41.10905 14.76671 8993 ft 242 kts 238°
2026-05-05 15:51 41.10014 14.74767 8656 ft 243 kts 238°
2026-05-05 15:52 41.09113 14.72863 8288 ft 245 kts 238°
2026-05-05 15:52 41.08194 14.70932 7883 ft 249 kts 238°
2026-05-05 15:52 41.07278 14.68971 7519 ft 251 kts 238°
2026-05-05 15:52 41.06366 14.67009 7210 ft 247 kts 238°
2026-05-05 15:53 41.05483 14.65111 6896 ft 237 kts 239°
2026-05-05 15:53 41.04633 14.63288 6566 ft 228 kts 239°
2026-05-05 15:53 41.03817 14.61536 6235 ft 218 kts 239°
2026-05-05 15:53 41.03046 14.59883 5926 ft 210 kts 238°
2026-05-05 15:54 41.02291 14.58265 5615 ft 203 kts 238°
2026-05-05 15:54 41.01564 14.56707 5349 ft 195 kts 238°
2026-05-05 15:54 41.00853 14.55185 5062 ft 195 kts 237°
2026-05-05 15:54 41.00141 14.53663 4757 ft 194 kts 237°
2026-05-05 15:55 40.99435 14.52152 4470 ft 192 kts 237°
2026-05-05 15:55 40.98741 14.50669 4190 ft 187 kts 237°
2026-05-05 15:55 40.98063 14.49219 3913 ft 183 kts 237°
2026-05-05 15:55 40.97403 14.47811 3643 ft 177 kts 237°
2026-05-05 15:56 40.96778 14.46477 3417 ft 163 kts 237°
2026-05-05 15:56 40.96208 14.45259 3171 ft 149 kts 237°
2026-05-05 15:56 40.95676 14.44125 2955 ft 142 kts 237°
2026-05-05 15:56 40.95162 14.43029 2749 ft 139 kts 237°
2026-05-05 15:57 40.94655 14.41948 2546 ft 138 kts 237°
2026-05-05 15:57 40.94149 14.40872 2340 ft 137 kts 237°
2026-05-05 15:57 40.93647 14.39804 2133 ft 137 kts 237°
2026-05-05 15:57 40.93145 14.38734 1933 ft 136 kts 237°
2026-05-05 15:58 40.92644 14.37669 1723 ft 137 kts 238°
2026-05-05 15:58 40.92137 14.36589 1509 ft 139 kts 238°
2026-05-05 15:58 40.91624 14.35499 1312 ft 140 kts 238°
2026-05-05 15:58 40.91106 14.34396 1099 ft 142 kts 239°
2026-05-05 15:59 40.90592 14.33302 894 ft 142 kts 239°
2026-05-05 15:59 40.90073 14.32196 685 ft 141 kts 238°
2026-05-05 15:59 40.89557 14.31095 460 ft 140 kts 238°
2026-05-05 15:59 40.89042 14.30006 269 ft 139 kts 238°
2026-05-05 16:00 40.88589 14.29046 269 ft 99 kts 238°
2026-05-05 16:00 40.88362 14.28569 290 ft 27 kts 237°
2026-05-05 16:00 40.88235 14.28409 297 ft 25 kts 221°
2026-05-05 16:00 40.88085 14.28322 299 ft 20 kts 206°
2026-05-05 16:01 40.88037 14.28210 304 ft 9 kts 214°
2026-05-05 16:01 40.87985 14.28251 303 ft 11 kts 135°
2026-05-05 16:01 40.87916 14.28291 303 ft 9 kts 186°
2026-05-05 16:01 40.87879 14.28285 304 ft 0 kts 187°